When you browse on this site, cookies collect data to enhance your experience and personalize the content and advertising you see.
Visit our Privacy Policy to learn more. By continuing to use the site, you agree to this use of cookies and data.
  • In Hungary
  • List of Countries
  • For 7 days
  • Water Temperature
  • Satellite Maps
  • Weather Map
  • News
  • Weather Widgets
  • user-avatar
    Login

    Hourly Weather Jarnoltowek

    Today, 21 April, Sunday

    Time Temperature Precipitation Wind Pressure Humidity
    00:00 +8°C° 0 mm 1 mps 730 mmHg 70%
    01:00 +7°C° 0 mm 1 mps 730 mmHg 72%
    02:00 +7°C° 0 mm 1 mps 730 mmHg 73%
    03:00 +7°C° 0 mm 1 mps 729 mmHg 74%
    04:00 +6°C° 0 mm 1 mps 729 mmHg 76%
    05:00 +8°C° 0 mm 1 mps 729 mmHg 73%
    06:00 +9°C° 0 mm 1 mps 729 mmHg 70%
    07:00 +10°C° 0 mm 1 mps 729 mmHg 67%
    08:00 +10°C° 0 mm 2 mps 729 mmHg 62%
    09:00 +13°C° 0 mm 2 mps 729 mmHg 56%
    10:00 +13°C° 0 mm 3 mps 729 mmHg 51%
    11:00 +14°C° 0 mm 3 mps 729 mmHg 49%
    12:00 +16°C° 0 mm 2 mps 728 mmHg 46%
    13:00 +16°C° 0 mm 2 mps 728 mmHg 44%
    14:00 +16°C° 0 mm 2 mps 728 mmHg 44%
    15:00 +16°C° 0 mm 2 mps 727 mmHg 44%
    16:00 +16°C° 0 mm 2 mps 727 mmHg 45%
    17:00 +14°C° 0 mm 2 mps 726 mmHg 51%
    18:00 +12°C° 0 mm 1 mps 726 mmHg 58%
    19:00 +10°C° 0 mm 1 mps 725 mmHg 65%
    20:00 +10°C° 0 mm 1 mps 725 mmHg 66%
    21:00 +9°C° 0 mm 1 mps 725 mmHg 67%
    22:00 +9°C° 0 mm 1 mps 725 mmHg 68%
    23:00 +8°C° 0 mm 1 mps 725 mmHg 68%

    Tomorrow, 22 April, Monday

    Time Temperature Precipitation Wind Pressure Humidity
    00:00 +8°C° 0 mm 1 mps 725 mmHg 67%
    01:00 +8°C° 0 mm 1 mps 725 mmHg 67%
    02:00 +7°C° 0 mm 1 mps 724 mmHg 69%
    03:00 +7°C° 0 mm 1 mps 724 mmHg 71%
    04:00 +6°C° 0 mm 1 mps 724 mmHg 74%
    05:00 +6°C° 0 mm 2 mps 724 mmHg 74%
    06:00 +6°C° 0 mm 2 mps 724 mmHg 75%
    07:00 +7°C° 0 mm 2 mps 724 mmHg 75%
    08:00 +8°C° 0 mm 2 mps 724 mmHg 68%
    09:00 +10°C° 0 mm 3 mps 724 mmHg 60%
    10:00 +11°C° 0 mm 3 mps 724 mmHg 53%
    11:00 +12°C° 0 mm 4 mps 724 mmHg 51%
    12:00 +12°C° 0 mm 4 mps 723 mmHg 48%
    13:00 +13°C° 0 mm 5 mps 723 mmHg 46%
    14:00 +13°C° 0 mm 5 mps 723 mmHg 46%
    15:00 +14°C° 0 mm 5 mps 723 mmHg 46%
    16:00 +14°C° 0 mm 5 mps 723 mmHg 46%
    17:00 +13°C° 0 mm 5 mps 722 mmHg 53%
    18:00 +10°C° 0 mm 5 mps 722 mmHg 60%
    19:00 +9°C° 0 mm 5 mps 722 mmHg 67%
    20:00 +8°C° 0 mm 4 mps 722 mmHg 73%
    21:00 +7°C° 0 mm 4 mps 722 mmHg 80%
    22:00 +7°C° 0 mm 3 mps 722 mmHg 86%
    23:00 +7°C° 0 mm 3 mps 721 mmHg 87%

    Day after tomorrow, 23 April, Tuesday

    Time Temperature Precipitation Wind Pressure Humidity
    00:00 +6°C° 0 mm 2 mps 721 mmHg 89%
    01:00 +6°C° 0 mm 2 mps 721 mmHg 90%
    02:00 +6°C° 0 mm 2 mps 720 mmHg 90%
    03:00 +6°C° 0 mm 2 mps 720 mmHg 90%
    04:00 +5°C° 0 mm 3 mps 720 mmHg 90%
    05:00 +7°C° 0.1 mm 3 mps 720 mmHg 89%
    06:00 +8°C° 0.1 mm 3 mps 720 mmHg 89%
    07:00 +7°C° 0.1 mm 4 mps 720 mmHg 88%
    08:00 +10°C° 0.1 mm 4 mps 720 mmHg 84%
    09:00 +11°C° 0.1 mm 4 mps 720 mmHg 79%
    10:00 +12°C° 0.1 mm 4 mps 720 mmHg 75%
    11:00 +11°C° 0.6 mm 4 mps 720 mmHg 78%
    12:00 +11°C° 0.6 mm 4 mps 720 mmHg 81%
    13:00 +10°C° 0.6 mm 4 mps 720 mmHg 84%
    14:00 +9°C° 0.1 mm 5 mps 719 mmHg 83%
    15:00 +9°C° 0.1 mm 6 mps 719 mmHg 81%
    16:00 +9°C° 0.1 mm 7 mps 719 mmHg 79%
    17:00 +8°C° 0.4 mm 6 mps 719 mmHg 83%
    18:00 +8°C° 0.4 mm 5 mps 719 mmHg 86%
    19:00 +7°C° 0.4 mm 5 mps 718 mmHg 89%
    20:00 +7°C° 0.2 mm 4 mps 718 mmHg 89%
    21:00 +8°C° 0.2 mm 4 mps 719 mmHg 89%
    22:00 +8°C° 0.2 mm 4 mps 719 mmHg 89%
    23:00 +8°C° 0 mm 4 mps 718 mmHg 89%

    24 April, Wednesday

    Time Temperature Precipitation Wind Pressure Humidity
    00:00 +8°C° 0 mm 4 mps 718 mmHg 89%
    01:00 +7°C° 0 mm 5 mps 718 mmHg 90%
    02:00 +8°C° 0 mm 5 mps 718 mmHg 90%
    03:00 +8°C° 0 mm 5 mps 718 mmHg 90%
    04:00 +8°C° 0 mm 5 mps 718 mmHg 90%
    05:00 +9°C° 0 mm 5 mps 719 mmHg 88%
    06:00 +10°C° 0 mm 5 mps 719 mmHg 85%
    07:00 +10°C° 0 mm 5 mps 719 mmHg 83%
    08:00 +11°C° 0 mm 6 mps 720 mmHg 80%
    09:00 +13°C° 0 mm 6 mps 720 mmHg 77%
    10:00 +14°C° 0 mm 6 mps 720 mmHg 74%
    11:00 +15°C° 0 mm 7 mps 721 mmHg 74%
    12:00 +15°C° 0 mm 7 mps 721 mmHg 73%
    13:00 +16°C° 0 mm 7 mps 721 mmHg 72%
    14:00 +16°C° 0 mm 6 mps 721 mmHg 73%
    15:00 +15°C° 0 mm 6 mps 721 mmHg 75%
    16:00 +15°C° 0 mm 5 mps 721 mmHg 76%
    17:00 +15°C° 0 mm 5 mps 721 mmHg 79%
    18:00 +14°C° 0 mm 4 mps 721 mmHg 81%
    19:00 +14°C° 0 mm 4 mps 721 mmHg 84%
    20:00 +13°C° 0 mm 4 mps 721 mmHg 86%
    21:00 +12°C° 0 mm 4 mps 721 mmHg 89%
    22:00 +12°C° 0 mm 4 mps 721 mmHg 91%
    23:00 +12°C° 0 mm 4 mps 721 mmHg 91%

    25 April, Thursday

    Time Temperature Precipitation Wind Pressure Humidity
    00:00 +12°C° 0 mm 4 mps 721 mmHg 91%
    01:00 +12°C° 0 mm 4 mps 721 mmHg 91%
    02:00 +12°C° 0 mm 4 mps 721 mmHg 91%
    03:00 +12°C° 0 mm 4 mps 721 mmHg 91%
    04:00 +11°C° 0 mm 4 mps 721 mmHg 91%
    05:00 +12°C° 0 mm 4 mps 721 mmHg 88%
    06:00 +13°C° 0 mm 4 mps 722 mmHg 84%
    07:00 +14°C° 0 mm 4 mps 722 mmHg 81%
    08:00 +15°C° 0 mm 4 mps 722 mmHg 76%
    09:00 +17°C° 0 mm 4 mps 723 mmHg 72%
    10:00 +19°C° 0 mm 4 mps 723 mmHg 67%
    11:00 +20°C° 0 mm 4 mps 723 mmHg 64%
    12:00 +21°C° 0 mm 4 mps 723 mmHg 60%
    13:00 +22°C° 0 mm 4 mps 723 mmHg 56%
    14:00 +22°C° 0 mm 4 mps 723 mmHg 57%
    15:00 +22°C° 0 mm 4 mps 723 mmHg 58%
    16:00 +22°C° 0 mm 5 mps 722 mmHg 58%
    17:00 +20°C° 0 mm 4 mps 722 mmHg 65%
    18:00 +19°C° 0 mm 3 mps 722 mmHg 73%
    19:00 +17°C° 0 mm 2 mps 721 mmHg 80%
    20:00 +16°C° 0 mm 3 mps 721 mmHg 82%
    21:00 +16°C° 0 mm 3 mps 721 mmHg 85%
    22:00 +14°C° 0 mm 3 mps 721 mmHg 88%
    23:00 +14°C° 0 mm 3 mps 721 mmHg 88%

    26 April, Friday

    Time Temperature Precipitation Wind Pressure Humidity
    00:00 +14°C° 0 mm 4 mps 720 mmHg 88%
    01:00 +14°C° 0 mm 4 mps 720 mmHg 88%
    02:00 +13°C° 0 mm 4 mps 720 mmHg 85%
    03:00 +13°C° 0 mm 4 mps 720 mmHg 83%
    04:00 +13°C° 0 mm 4 mps 719 mmHg 81%
    05:00 +14°C° 0 mm 4 mps 720 mmHg 79%
    06:00 +15°C° 0 mm 5 mps 720 mmHg 77%
    07:00 +16°C° 0 mm 5 mps 720 mmHg 75%
    08:00 +17°C° 0 mm 5 mps 720 mmHg 70%
    09:00 +20°C° 0 mm 4 mps 720 mmHg 65%
    10:00 +21°C° 0 mm 4 mps 720 mmHg 59%
    11:00 +22°C° 0 mm 4 mps 720 mmHg 57%
    12:00 +23°C° 0 mm 4 mps 720 mmHg 54%
    13:00 +23°C° 0 mm 4 mps 720 mmHg 52%
    14:00 +23°C° 0.2 mm 4 mps 720 mmHg 54%
    15:00 +23°C° 0.2 mm 4 mps 720 mmHg 56%
    16:00 +22°C° 0.2 mm 4 mps 720 mmHg 57%
    17:00 +20°C° 1.4 mm 4 mps 720 mmHg 69%
    18:00 +17°C° 1.4 mm 4 mps 721 mmHg 80%
    19:00 +13°C° 1.4 mm 4 mps 721 mmHg 92%
    20:00 +12°C° 0.5 mm 4 mps 721 mmHg 92%
    21:00 +11°C° 0.5 mm 4 mps 722 mmHg 92%
    22:00 +9°C° 0.5 mm 5 mps 722 mmHg 93%
    23:00 +9°C° 0.6 mm 5 mps 723 mmHg 92%
    Show more